Location: Amsterdam
(30.7274°N, 84.4357°W)
Time: 05:24:18
(UTC+00:00)

Tiros 1 despin weight - Pass Details

Date: 20 February 2026
Orbit: 556 x 593 km, 48.2° (Epoch: 13 March)

Event Time Altitude Azimuth Distance (km) Brightness Sun altitude
Rises 16:55:11 0° 180° (S) 2,757 ? 46.4°
Reaches altitude 10° 16:59:12 10° 142° (SE) 1,854 ? 46.7°
Maximum altitude 17:00:16 11° 128° (SE) 1,800 ? 46.8°
Drops below altitude 10° 17:01:19 10° 113° (ESE) 1,850 ? 46.8°
Sets 17:05:18 0° 76° (ENE) 2,741 ? 47.1°
